Hourly Weather Herāt

Today, 10 July, Friday

Time Temperature Precipitation Wind Pressure Humidity
00:00 +28°C° 0 mm 9 mps 675 mmHg 22%
01:00 +27°C° 0 mm 9 mps 675 mmHg 24%
02:00 +27°C° 0 mm 8 mps 675 mmHg 25%
03:00 +26°C° 0 mm 7 mps 675 mmHg 26%
04:00 +26°C° 0 mm 7 mps 674 mmHg 27%
05:00 +28°C° 0 mm 8 mps 675 mmHg 25%
06:00 +29°C° 0 mm 10 mps 676 mmHg 23%
07:00 +32°C° 0 mm 11 mps 676 mmHg 21%
08:00 +34°C° 0 mm 12 mps 676 mmHg 19%
09:00 +36°C° 0 mm 13 mps 676 mmHg 17%
10:00 +37°C° 0 mm 13 mps 677 mmHg 14%
11:00 +38°C° 0 mm 13 mps 677 mmHg 13%
12:00 +39°C° 0 mm 13 mps 677 mmHg 13%
13:00 +41°C° 0 mm 13 mps 677 mmHg 12%
14:00 +41°C° 0 mm 13 mps 676 mmHg 12%
15:00 +41°C° 0 mm 13 mps 676 mmHg 12%
16:00 +41°C° 0 mm 13 mps 675 mmHg 12%
17:00 +38°C° 0 mm 12 mps 676 mmHg 13%
18:00 +36°C° 0 mm 10 mps 676 mmHg 15%
19:00 +34°C° 0 mm 9 mps 676 mmHg 16%
20:00 +33°C° 0 mm 8 mps 676 mmHg 17%
21:00 +30°C° 0 mm 7 mps 676 mmHg 19%
22:00 +29°C° 0 mm 6 mps 676 mmHg 20%
23:00 +28°C° 0 mm 5 mps 675 mmHg 21%

Tomorrow, 11 July, Saturday

Time Temperature Precipitation Wind Pressure Humidity
00:00 +27°C° 0 mm 4 mps 675 mmHg 23%
01:00 +26°C° 0 mm 4 mps 675 mmHg 24%
02:00 +25°C° 0 mm 4 mps 675 mmHg 25%
03:00 +25°C° 0 mm 4 mps 674 mmHg 27%
04:00 +23°C° 0 mm 4 mps 674 mmHg 28%
05:00 +26°C° 0 mm 5 mps 675 mmHg 25%
06:00 +28°C° 0 mm 5 mps 676 mmHg 22%
07:00 +30°C° 0 mm 6 mps 676 mmHg 19%
08:00 +33°C° 0 mm 8 mps 676 mmHg 18%
09:00 +34°C° 0 mm 10 mps 677 mmHg 17%
10:00 +36°C° 0 mm 12 mps 677 mmHg 16%
11:00 +37°C° 0 mm 12 mps 677 mmHg 17%
12:00 +37°C° 0 mm 12 mps 676 mmHg 17%
13:00 +38°C° 0 mm 13 mps 676 mmHg 17%
14:00 +38°C° 0 mm 13 mps 676 mmHg 17%
15:00 +37°C° 0 mm 12 mps 676 mmHg 16%
16:00 +37°C° 0 mm 12 mps 676 mmHg 16%
17:00 +36°C° 0 mm 11 mps 676 mmHg 17%
18:00 +33°C° 0 mm 10 mps 675 mmHg 18%
19:00 +31°C° 0 mm 9 mps 675 mmHg 19%
20:00 +29°C° 0 mm 8 mps 675 mmHg 20%
21:00 +28°C° 0 mm 7 mps 675 mmHg 21%
22:00 +27°C° 0 mm 6 mps 675 mmHg 22%
23:00 +26°C° 0 mm 5 mps 675 mmHg 24%

Day after tomorrow, 12 July, Sunday

Time Temperature Precipitation Wind Pressure Humidity
00:00 +25°C° 0 mm 4 mps 674 mmHg 26%
01:00 +23°C° 0 mm 4 mps 674 mmHg 28%
02:00 +23°C° 0 mm 4 mps 673 mmHg 30%
03:00 +22°C° 0 mm 3 mps 673 mmHg 31%
04:00 +22°C° 0 mm 3 mps 672 mmHg 33%
05:00 +25°C° 0 mm 5 mps 673 mmHg 29%
06:00 +27°C° 0 mm 6 mps 674 mmHg 26%
07:00 +29°C° 0 mm 7 mps 674 mmHg 22%
08:00 +31°C° 0 mm 9 mps 674 mmHg 20%
09:00 +33°C° 0 mm 11 mps 675 mmHg 18%
10:00 +36°C° 0 mm 13 mps 675 mmHg 16%
11:00 +37°C° 0 mm 12 mps 675 mmHg 15%
12:00 +37°C° 0 mm 12 mps 675 mmHg 14%
13:00 +38°C° 0 mm 12 mps 675 mmHg 13%
14:00 +38°C° 0 mm 12 mps 674 mmHg 13%
15:00 +38°C° 0 mm 12 mps 674 mmHg 13%
16:00 +38°C° 0 mm 12 mps 674 mmHg 12%
17:00 +37°C° 0 mm 10 mps 674 mmHg 14%
18:00 +34°C° 0 mm 9 mps 674 mmHg 15%
19:00 +32°C° 0 mm 8 mps 673 mmHg 16%
20:00 +30°C° 0 mm 7 mps 673 mmHg 19%
21:00 +29°C° 0 mm 7 mps 673 mmHg 22%
22:00 +27°C° 0 mm 6 mps 673 mmHg 24%
23:00 +27°C° 0 mm 6 mps 673 mmHg 26%

13 July, Monday

Time Temperature Precipitation Wind Pressure Humidity
00:00 +26°C° 0 mm 5 mps 672 mmHg 28%
01:00 +26°C° 0 mm 5 mps 672 mmHg 30%
02:00 +25°C° 0 mm 5 mps 672 mmHg 31%
03:00 +23°C° 0 mm 4 mps 672 mmHg 33%
04:00 +23°C° 0 mm 4 mps 672 mmHg 34%
05:00 +26°C° 0 mm 5 mps 672 mmHg 31%
06:00 +27°C° 0 mm 6 mps 673 mmHg 28%
07:00 +29°C° 0 mm 7 mps 673 mmHg 25%
08:00 +32°C° 0 mm 8 mps 673 mmHg 22%
09:00 +34°C° 0 mm 10 mps 674 mmHg 20%
10:00 +37°C° 0 mm 11 mps 674 mmHg 18%
11:00 +38°C° 0 mm 11 mps 674 mmHg 16%
12:00 +39°C° 0 mm 11 mps 673 mmHg 15%
13:00 +40°C° 0 mm 10 mps 673 mmHg 14%
14:00 +41°C° 0 mm 11 mps 673 mmHg 14%
15:00 +41°C° 0 mm 11 mps 672 mmHg 14%
16:00 +39°C° 0 mm 11 mps 672 mmHg 13%
17:00 +38°C° 0 mm 10 mps 672 mmHg 14%
18:00 +35°C° 0 mm 9 mps 672 mmHg 16%
19:00 +33°C° 0 mm 8 mps 672 mmHg 17%
20:00 +32°C° 0 mm 7 mps 672 mmHg 17%
21:00 +29°C° 0 mm 7 mps 672 mmHg 18%
22:00 +28°C° 0 mm 6 mps 672 mmHg 19%
23:00 +27°C° 0 mm 6 mps 672 mmHg 19%

14 July, Tuesday

Time Temperature Precipitation Wind Pressure Humidity
00:00 +27°C° 0 mm 5 mps 672 mmHg 19%
01:00 +26°C° 0 mm 5 mps 672 mmHg 20%
02:00 +26°C° 0 mm 4 mps 672 mmHg 20%
03:00 +25°C° 0 mm 4 mps 672 mmHg 21%
04:00 +25°C° 0 mm 3 mps 672 mmHg 22%
05:00 +27°C° 0 mm 3 mps 673 mmHg 20%
06:00 +29°C° 0 mm 2 mps 674 mmHg 19%
07:00 +31°C° 0 mm 2 mps 674 mmHg 17%
08:00 +34°C° 0 mm 3 mps 675 mmHg 15%
09:00 +36°C° 0 mm 4 mps 675 mmHg 14%
10:00 +39°C° 0 mm 5 mps 675 mmHg 13%
11:00 +40°C° 0 mm 6 mps 675 mmHg 12%
12:00 +41°C° 0 mm 7 mps 675 mmHg 11%
13:00 +43°C° 0 mm 9 mps 675 mmHg 10%
14:00 +43°C° 0 mm 9 mps 675 mmHg 10%
15:00 +43°C° 0 mm 9 mps 674 mmHg 11%
16:00 +43°C° 0 mm 9 mps 674 mmHg 11%
17:00 +40°C° 0 mm 8 mps 674 mmHg 11%
18:00 +38°C° 0 mm 8 mps 674 mmHg 12%
19:00 +35°C° 0 mm 7 mps 674 mmHg 13%
20:00 +34°C° 0 mm 7 mps 675 mmHg 14%
21:00 +33°C° 0 mm 7 mps 675 mmHg 14%
22:00 +32°C° 0 mm 7 mps 675 mmHg 15%
23:00 +30°C° 0 mm 6 mps 675 mmHg 16%

15 July, Wednesday

Time Temperature Precipitation Wind Pressure Humidity
00:00 +29°C° 0 mm 6 mps 675 mmHg 17%
01:00 +28°C° 0 mm 5 mps 675 mmHg 18%
02:00 +28°C° 0 mm 4 mps 675 mmHg 18%
03:00 +27°C° 0 mm 4 mps 675 mmHg 19%
04:00 +26°C° 0 mm 3 mps 675 mmHg 20%
05:00 +28°C° 0 mm 3 mps 675 mmHg 18%
06:00 +30°C° 0 mm 3 mps 676 mmHg 15%
07:00 +33°C° 0 mm 3 mps 677 mmHg 13%
08:00 +35°C° 0 mm 4 mps 677 mmHg 12%
09:00 +39°C° 0 mm 6 mps 677 mmHg 11%
10:00 +41°C° 0 mm 8 mps 678 mmHg 9%
11:00 +41°C° 0 mm 8 mps 677 mmHg 9%
12:00 +43°C° 0 mm 9 mps 677 mmHg 9%
13:00 +44°C° 0 mm 9 mps 677 mmHg 9%
14:00 +43°C° 0 mm 9 mps 677 mmHg 9%
15:00 +43°C° 0 mm 10 mps 676 mmHg 10%
16:00 +43°C° 0 mm 10 mps 676 mmHg 10%
17:00 +40°C° 0 mm 9 mps 676 mmHg 11%
18:00 +38°C° 0 mm 8 mps 675 mmHg 12%
19:00 +35°C° 0 mm 7 mps 675 mmHg 13%
20:00 +34°C° 0 mm 7 mps 676 mmHg 14%
21:00 +33°C° 0 mm 7 mps 676 mmHg 15%
22:00 +32°C° 0 mm 7 mps 676 mmHg 15%
23:00 +30°C° 0 mm 7 mps 676 mmHg 16%
Show more